EW5804 Weather Reports


Display with metric or nautical units.
time (UTC)temp
F
wind
direction
speed
MPH
gust
MPH
rain 1hr
in
rain 24hr
in
rain mn
in
humidity
%
barometer
mb
20260903060256 75 23 0.0 0.0 0.00 0.00 0.00 91 1016.8
20260903055751 75 23 0.0 0.0 0.00 0.00 0.00 91 1016.8
20260903055014 75 23 0.0 0.0 0.00 0.00 0.00 91 1017.0
20260903054510 75 23 0.0 0.0 0.00 0.00 0.00 91 1017.0
20260903054006 75 23 0.0 0.0 0.00 0.00 0.00 91 1016.9
20260903053456 75 23 0.0 0.0 0.00 0.00 0.00 91 1016.9
20260903052951 75 23 0.0 0.0 0.00 0.00 0.00 91 1017.0
20260903052445 75 23 0.0 0.0 0.00 0.00 0.00 91 1017.0
20260903052426 75 23 0.0 0.0 0.00 0.00 0.00 91 1017.0
20260903051654 75 23 0.0 0.0 0.00 0.00 0.00 91 1016.9
20260903051149 75 23 0.0 0.0 0.00 0.00 0.00 91 1016.8
20260903050419 75 23 0.0 0.0 0.00 0.00 0.00 91 1016.9
20260903045914 75 23 0.0 0.0 0.00 0.00 0.00 91 1016.9
20260903045408 75 23 0.0 0.0 0.00 0.00 0.00 91 1016.8
20260903044901 75 23 0.0 0.0 0.00 0.00 0.00 91 1016.8
20260903044356 75 23 0.0 0.0 0.00 0.00 0.00 91 1016.9
20260903043850 75 23 0.0 0.0 0.00 0.00 0.00 91 1016.9
20260903043343 75 23 0.0 0.0 0.00 0.00 0.00 91 1016.9
20260903042838 75 23 0.0 0.0 0.00 0.00 0.00 91 1016.8
20260903042332 75 24 0.0 0.0 0.00 0.00 0.00 90 1016.9
20260903041825 75 23 0.0 0.0 0.00 0.00 0.00 91 1017.1
20260903041321 76 23 0.0 0.0 0.00 0.00 0.00 91 1017.0
20260903040814 76 23 0.0 0.0 0.00 0.00 0.00 91 1016.7
20260903040308 76 23 0.0 0.0 0.00 0.00 0.00 90 1016.6
20260903035801 76 23 0.0 0.0 0.00 0.00 0.00 91 1016.7
20260903035257 76 23 0.0 0.0 0.00 0.00 0.00 90 1016.7
20260903034752 76 23 0.0 0.0 0.00 0.00 0.00 90 1016.8
20260903034243 76 23 0.0 0.0 0.00 0.00 0.00 90 1016.8
20260903033739 76 23 0.0 0.0 0.00 0.00 0.00 90 1016.6
20260903033232 76 23 0.0 0.0 0.00 0.00 0.00 90 1016.7
20260903032725 76 23 0.0 0.0 0.00 0.00 0.00 90 1016.7
20260903032220 76 23 0.0 0.0 0.00 0.00 0.00 90 1016.7
20260903031716 76 22 0.0 0.0 0.00 0.00 0.00 90 1016.7
20260903031432 76 22 0.0 0.0 0.00 0.00 0.00 90 1016.6
20260903030702 76 23 0.0 0.0 0.00 0.00 0.00 90 1016.6
20260903030156 76 23 0.0 0.0 0.00 0.00 0.00 90 1016.7
20260903025652 76 23 0.0 0.0 0.00 0.00 0.00 90 1016.9
20260903025145 76 22 0.0 0.0 0.00 0.00 0.00 90 1017.1
20260903024639 76 55 0.0 2.0 0.00 0.00 0.00 90 1017.2
20260903024351 76 59 0.0 2.0 0.00 0.00 0.00 89 1017.2
20260903023625 76 59 1.0 3.0 0.00 0.00 0.00 89 1017.0
20260903023119 76 59 0.0 3.0 0.00 0.00 0.00 89 1017.1
20260903022614 76 59 0.0 2.0 0.00 0.00 0.00 89 1017.1
20260903022109 76 59 2.0 5.0 0.00 0.00 0.00 89 1017.0
20260903021826 76 59 3.0 5.0 0.00 0.00 0.00 89 1017.1
20260903021055 77 59 1.0 4.0 0.00 0.00 0.00 89 1017.1
20260903020551 77 238 0.0 2.0 0.00 0.00 0.00 88 1017.0
20260903020057 77 238 0.0 2.0 0.00 0.00 0.00 88 1017.0
20260903015539 77 238 0.0 2.0 0.00 0.00 0.00 88 1017.1
20260903015033 78 238 0.0 1.0 0.00 0.00 0.00 88 1017.2
20260903014525 78 238 0.0 2.0 0.00 0.00 0.00 88 1017.2
20260903014021 78 238 0.0 2.0 0.00 0.00 0.00 88 1017.1
20260903013746 78 238 0.0 0.0 0.00 0.00 0.00 87 1017.0
20260903013243 78 238 0.0 0.0 0.00 0.00 0.00 87 1017.0
20260903012520 78 238 0.0 0.0 0.00 0.00 0.00 87 1016.9
20260903012021 78 238 0.0 0.0 0.00 0.00 0.00 87 1017.1
20260903011521 78 238 0.0 0.0 0.00 0.00 0.00 87 1017.3
20260903011014 78 238 0.0 0.0 0.00 0.00 0.00 87 1017.3
20260903010507 78 232 0.0 0.0 0.00 0.00 0.00 86 1017.1
20260903010004 79 232 0.0 0.0 0.00 0.00 0.00 86 1017.0
20260903005941 79 232 0.0 0.0 0.00 0.00 0.00 86 1017.0
20260903004950 79 232 0.0 0.0 0.00 0.00 0.00 86 1016.9
20260903004443 79 233 0.0 0.0 0.00 0.00 0.00 86 1016.8
20260903003938 79 232 0.0 0.0 0.00 0.00 0.00 85 1016.7
20260903003435 79 232 0.0 0.0 0.00 0.00 0.00 85 1016.6
20260903002927 80 232 0.0 0.0 0.00 0.00 0.00 85 1016.4
20260903002643 80 232 0.0 0.0 0.00 0.00 0.00 84 1016.1
20260903001917 80 232 0.0 0.0 0.00 0.00 0.00 84 1016.2
20260903001419 80 232 0.0 0.0 0.00 0.00 0.00 84 1016.4
20260903000930 80 232 0.0 0.0 0.00 0.00 0.00 84 1016.4
20260903000420 80 231 0.0 0.0 0.00 0.00 0.00 83 1016.5
20260902235920 80 231 0.0 0.0 0.00 0.00 0.00 83 1016.6
20260902235418 81 232 0.0 0.0 0.00 0.00 0.00 82 1016.5
20260902234918 81 232 0.0 1.0 0.00 0.00 0.00 82 1016.6
20260902234415 81 232 0.0 2.0 0.00 0.00 0.00 82 1016.7
20260902233913 81 231 1.0 2.0 0.00 0.00 0.00 82 1016.8
20260902233643 81 211 0.0 2.0 0.00 0.00 0.00 81 1016.6
20260902232912 82 209 1.0 2.0 0.00 0.00 0.00 81 1016.5
20260902232410 82 209 1.0 3.0 0.00 0.00 0.00 81 1016.6
20260902232403 82 207 1.0 3.0 0.00 0.00 0.00 81 1016.4
20260902231411 82 355 1.0 2.0 0.00 0.00 0.00 81 1016.5
20260902230909 82 355 1.0 4.0 0.00 0.00 0.00 81 1016.8
20260902230406 82 359 1.0 4.0 0.00 0.00 0.00 80 1017.0
20260902225905 82 152 1.0 4.0 0.00 0.00 0.00 80 1017.0
20260902225408 82 153 1.0 4.0 0.00 0.00 0.00 80 1017.1
20260902224907 82 54 1.0 3.0 0.00 0.00 0.00 80 1017.1
20260902224403 83 52 1.0 3.0 0.00 0.00 0.00 80 1016.9
20260902223858 83 51 1.0 3.0 0.00 0.00 0.00 80 1017.1
20260902223358 83 51 1.0 5.0 0.00 0.00 0.00 79 1017.1
20260902222857 83 157 2.0 7.0 0.00 0.00 0.00 80 1016.9
20260902222356 83 79 3.0 7.0 0.00 0.00 0.00 80 1016.9
20260902221855 83 81 4.0 8.0 0.00 0.00 0.00 80 1016.9
20260902221614 83 39 5.0 9.0 0.00 0.00 0.00 79 1017.3
20260902220856 83 43 5.0 9.0 0.00 0.00 0.00 79 1017.2
20260902220354 84 58 5.0 10.0 0.00 0.00 0.00 79 1017.3
20260902215855 84 55 6.0 11.0 0.00 0.00 0.00 79 1017.5
20260902215355 84 46 7.0 13.0 0.00 0.00 0.00 79 1017.9
20260902214851 85 56 9.0 18.0 0.00 0.00 0.00 79 1018.2
20260902214611 85 78 11.0 18.0 0.00 0.00 0.00 78 1017.9
20260902213851 86 49 10.0 15.0 0.00 0.00 0.00 78 1017.6
20260902213353 86 64 11.0 16.0 0.00 0.00 0.00 77 1017.4
20260902212848 86 47 10.0 16.0 0.00 0.00 0.00 77 1017.7
20260902212347 87 51 9.0 14.0 0.00 0.00 0.00 76 1017.7
20260902211903 87 57 9.0 14.0 0.00 0.00 0.00 76 1017.7
20260902211608 87 50 10.0 16.0 0.00 0.00 0.00 75 1017.4
20260902210847 87 26 11.0 17.0 0.00 0.00 0.00 76 1017.1
20260902210349 87 62 11.0 17.0 0.00 0.00 0.00 75 1017.2
20260902205848 88 67 10.0 15.0 0.00 0.00 0.00 75 1017.4
20260902205349 88 55 9.0 15.0 0.00 0.00 0.00 76 1017.3
20260902204852 88 68 8.0 14.0 0.00 0.00 0.00 76 1017.3
20260902204348 88 59 6.0 13.0 0.00 0.00 0.00 76 1017.3
20260902203849 88 41 5.0 11.0 0.00 0.00 0.00 76 1017.2
20260902203609 88 50 7.0 12.0 0.00 0.00 0.00 76 1017.3
20260902203109 89 48 8.0 12.0 0.00 0.00 0.00 76 1017.3
20260902202347 89 51 8.0 12.0 0.00 0.00 0.00 76 1017.3
20260902201849 89 47 8.0 13.0 0.00 0.00 0.00 76 1017.2
20260902201352 89 61 7.0 13.0 0.00 0.00 0.00 75 1017.1
20260902200848 89 59 5.0 10.0 0.00 0.00 0.00 76 1017.0
20260902200348 89 65 6.0 14.0 0.00 0.00 0.00 77 1017.1
20260902195854 89 43 7.0 14.0 0.00 0.00 0.00 76 1017.1
20260902195338 89 52 7.0 14.0 0.00 0.00 0.00 75 1017.0
20260902194831 89 94 7.0 14.0 0.00 0.00 0.00 75 1017.0
20260902194550 89 50 5.0 12.0 0.00 0.00 0.00 75 1017.1
20260902193820 89 93 5.0 10.0 0.00 0.00 0.00 77 1017.1
20260902193314 89 36 5.0 10.0 0.00 0.00 0.00 77 1017.1
20260902192807 89 91 4.0 9.0 0.00 0.00 0.00 76 1017.1
20260902192300 89 92 4.0 11.0 0.00 0.00 0.00 78 1017.1
20260902191807 89 118 4.0 11.0 0.00 0.00 0.00 75 1017.2
20260902191510 89 55 4.0 10.0 0.00 0.00 0.00 77 1017.2
20260902190742 89 90 5.0 12.0 0.00 0.00 0.00 75 1017.2
20260902190237 89 122 6.0 12.0 0.00 0.00 0.00 76 1017.3
20260902185731 89 43 7.0 13.0 0.00 0.00 0.00 76 1017.4
20260902185446 89 55 7.0 13.0 0.00 0.00 0.00 75 1017.4
20260902184939 89 49 8.0 13.0 0.00 0.00 0.00 77 1017.4
20260902184213 89 41 8.0 13.0 0.00 0.00 0.00 75 1017.5
20260902183706 89 54 6.0 13.0 0.00 0.00 0.00 76 1017.6
20260902183200 90 70 5.0 11.0 0.00 0.00 0.00 75 1017.7
20260902182656 90 101 6.0 10.0 0.00 0.00 0.00 75 1017.7
20260902182410 90 39 6.0 10.0 0.00 0.00 0.00 74 1017.5
20260902181642 90 43 5.0 15.0 0.00 0.00 0.00 74 1017.5
20260902181138 91 44 5.0 15.0 0.00 0.00 0.00 74 1017.5
20260902180631 91 84 3.0 13.0 0.00 0.00 0.00 74 1017.5
20260902180123 91 67 3.0 8.0 0.00 0.00 0.00 74 1017.5
20260902175618 90 34 5.0 12.0 0.00 0.00 0.00 72 1017.6
20260902175112 90 120 6.0 12.0 0.00 0.00 0.00 72 1017.5
20260902174606 90 120 7.0 15.0 0.00 0.00 0.00 72 1017.3
20260902174334 90 43 7.0 15.0 0.00 0.00 0.00 71 1017.4
20260902173557 91 34 4.0 10.0 0.00 0.00 0.00 72 1017.3
20260902173050 91 91 5.0 11.0 0.00 0.00 0.00 72 1017.3
20260902172543 91 109 7.0 13.0 0.00 0.00 0.00 71 1017.3
20260902172037 91 49 5.0 13.0 0.00 0.00 0.00 70 1017.2
20260902171531 91 98 6.0 13.0 0.00 0.00 0.00 72 1017.1
20260902171025 91 43 7.0 13.0 0.00 0.00 0.00 71 1017.2
20260902170520 91 50 6.0 13.0 0.00 0.00 0.00 70 1017.2
20260902170014 91 55 8.0 13.0 0.00 0.00 0.00 69 1017.2
20260902165508 91 49 6.0 13.0 0.00 0.00 0.00 70 1017.3
20260902165000 91 32 5.0 11.0 0.00 0.00 0.00 70 1017.2
20260902164721 91 49 6.0 11.0 0.00 0.00 0.00 67 1017.3
20260902163948 91 65 7.0 13.0 0.00 0.00 0.00 69 1017.4
20260902163442 91 47 7.0 13.0 0.00 0.00 0.00 67 1017.4
20260902162936 92 41 5.0 11.0 0.00 0.00 0.00 68 1017.3
20260902162431 93 91 3.0 10.0 0.00 0.00 0.00 67 1017.3
20260902161925 93 230 2.0 8.0 0.00 0.00 0.00 68 1017.4
20260902161418 93 324 3.0 8.0 0.00 0.00 0.00 66 1017.3
20260902160409 92 355 3.0 9.0 0.00 0.00 0.00 66 1017.6
20260902155902 92 336 3.0 8.0 0.00 0.00 0.00 67 1017.6
20260902155834 92 73 3.0 7.0 0.00 0.00 0.00 67 1017.6
20260902154850 92 95 3.0 6.0 0.00 0.00 0.00 68 1017.6
20260902154342 92 53 3.0 7.0 0.00 0.00 0.00 68 1017.7
20260902154057 92 27 3.0 7.0 0.00 0.00 0.00 68 1017.7
20260902153329 92 276 3.0 7.0 0.00 0.00 0.00 68 1017.7
20260902152825 91 275 3.0 7.0 0.00 0.00 0.00 67 1017.7
20260902152318 91 252 3.0 8.0 0.00 0.00 0.00 68 1017.7
20260902151812 91 244 3.0 8.0 0.00 0.00 0.00 69 1017.7
20260902151307 91 175 3.0 10.0 0.00 0.00 0.00 67 1017.7
20260902150801 90 305 3.0 10.0 0.00 0.00 0.00 69 1017.7
20260902150254 91 350 4.0 9.0 0.00 0.00 0.00 69 1017.7
20260902145748 90 336 4.0 9.0 0.00 0.00 0.00 69 1017.7
20260902145738 90 284 3.0 10.0 0.00 0.00 0.00 71 1017.6
20260902144955 89 50 3.0 10.0 0.00 0.00 0.00 69 1017.6
20260902144230 89 283 3.0 9.0 0.00 0.00 0.00 71 1017.6
20260902143943 88 341 3.0 5.0 0.00 0.00 0.00 73 1017.7
20260902143219 88 43 3.0 5.0 0.00 0.00 0.00 73 1017.6
20260902142713 88 58 3.0 5.0 0.00 0.00 0.00 74 1017.5
20260902142208 88 71 3.0 5.0 0.00 0.00 0.00 74 1017.4
20260902141929 88 49 3.0 6.0 0.00 0.00 0.00 73 1017.4
20260902141156 88 33 2.0 6.0 0.00 0.00 0.00 74 1017.3
20260902140913 88 34 2.0 6.0 0.00 0.00 0.00 74 1017.3
20260902140142 88 57 2.0 4.0 0.00 0.00 0.00 73 1017.4
20260902135638 88 19 1.0 3.0 0.00 0.00 0.00 75 1017.3
20260902135131 87 261 1.0 4.0 0.00 0.00 0.00 76 1017.3
20260902134625 86 46 2.0 5.0 0.00 0.00 0.00 77 1017.2
20260902134118 86 48 2.0 6.0 0.00 0.00 0.00 76 1017.2
20260902133612 86 78 2.0 6.0 0.00 0.00 0.00 76 1017.0
20260902133105 86 43 1.0 4.0 0.00 0.00 0.00 76 1017.2
20260902132612 86 104 1.0 3.0 0.00 0.00 0.00 77 1017.0
20260902132054 85 106 1.0 3.0 0.00 0.00 0.00 77 1017.1
20260902131548 85 83 1.0 3.0 0.00 0.00 0.00 79 1017.1
20260902131311 84 102 2.0 5.0 0.00 0.00 0.00 78 1017.0
20260902130536 84 298 2.0 5.0 0.00 0.00 0.00 79 1017.0
20260902130032 83 279 1.0 4.0 0.00 0.00 0.00 83 1017.1
20260902125526 83 281 1.0 3.0 0.00 0.00 0.00 85 1016.9
20260902125020 82 284 1.0 2.0 0.00 0.00 0.00 86 1016.9
20260902124521 81 284 0.0 2.0 0.00 0.00 0.00 87 1016.9
20260902124019 80 289 0.0 0.0 0.00 0.00 0.00 88 1016.9
20260902123515 80 292 0.0 0.0 0.00 0.00 0.00 90 1016.8
20260902123014 79 292 0.0 0.0 0.00 0.00 0.00 90 1016.7
20260902122457 79 292 0.0 1.0 0.00 0.00 0.00 91 1016.7
20260902121956 78 292 1.0 4.0 0.00 0.00 0.00 91 1016.8
20260902121453 78 295 1.0 4.0 0.00 0.00 0.00 92 1016.9
20260902120947 78 303 1.0 4.0 0.00 0.00 0.00 92 1017.0
20260902120446 77 255 1.0 2.0 0.00 0.00 0.00 92 1017.0
20260902120413 76 255 1.0 3.0 0.00 0.00 0.00 92 1017.0
20260902120213 77 255 1.0 2.0 0.00 0.00 0.00 92 1017.0
20260902114945 76 255 1.0 3.0 0.00 0.00 0.00 92 1016.9
20260902114446 76 255 1.0 2.0 0.00 0.00 0.00 92 1017.0
20260902113945 76 255 1.0 2.0 0.00 0.00 0.00 92 1016.9
20260902113445 76 255 0.0 0.0 0.00 0.00 0.00 92 1016.9
20260902112944 75 255 0.0 1.0 0.00 0.00 0.00 92 1016.7
20260902112708 75 255 0.0 1.0 0.00 0.00 0.00 92 1016.6
20260902111946 75 255 0.0 0.0 0.00 0.00 0.00 92 1016.7
20260902111446 75 255 0.0 0.0 0.00 0.00 0.00 92 1016.7
20260902111206 75 255 0.0 1.0 0.00 0.00 0.00 92 1016.7
20260902110446 75 255 0.0 1.0 0.00 0.00 0.00 92 1016.6
20260902105945 75 255 0.0 1.0 0.00 0.00 0.00 92 1016.7
20260902105707 75 254 0.0 1.0 0.00 0.00 0.00 92 1016.6
20260902105211 75 254 0.0 1.0 0.00 0.00 0.00 92 1016.5
20260902104444 75 255 0.0 1.0 0.00 0.00 0.00 92 1016.5
20260902103943 75 255 0.0 0.0 0.00 0.00 0.00 92 1016.5
20260902103702 75 255 0.0 0.0 0.00 0.00 0.00 92 1016.5
20260902102932 75 254 0.0 0.0 0.00 0.00 0.00 92 1016.5
20260902102428 75 255 0.0 1.0 0.00 0.00 0.00 92 1016.5
20260902101920 75 254 0.0 1.0 0.00 0.00 0.00 92 1016.4
20260902101900 75 255 0.0 0.0 0.00 0.00 0.00 92 1016.4
20260902100907 75 253 0.0 1.0 0.00 0.00 0.00 92 1016.4
20260902100627 75 254 0.0 1.0 0.00 0.00 0.00 92 1016.6
20260902100119 75 255 0.0 1.0 0.00 0.00 0.00 92 1016.5
20260902095349 75 254 0.0 1.0 0.00 0.00 0.00 92 1016.5
20260902094843 76 255 0.0 1.0 0.00 0.00 0.00 92 1016.4
20260902094338 76 254 0.0 2.0 0.00 0.00 0.00 92 1016.4
20260902093831 76 254 0.0 2.0 0.00 0.00 0.00 92 1016.4
20260902093546 76 251 0.0 0.0 0.00 0.00 0.00 92 1016.3
20260902093046 76 251 0.0 0.0 0.00 0.00 0.00 92 1016.3
20260902092329 76 251 0.0 0.0 0.00 0.00 0.00 92 1016.2
20260902091808 76 251 0.0 0.0 0.00 0.00 0.00 92 1016.3
20260902091301 76 251 0.0 0.0 0.00 0.00 0.00 92 1016.3
20260902090756 76 250 0.0 0.0 0.00 0.00 0.00 92 1016.4
20260902090250 76 250 0.0 0.0 0.00 0.00 0.00 92 1016.4
20260902085743 76 250 0.0 0.0 0.00 0.00 0.00 92 1016.3
20260902085237 76 250 0.0 0.0 0.00 0.00 0.00 92 1016.3
20260902084731 76 250 0.0 0.0 0.00 0.00 0.00 92 1016.4
20260902084225 76 250 0.0 0.0 0.00 0.00 0.00 92 1016.3
20260902083721 76 250 0.0 0.0 0.00 0.00 0.00 92 1016.3
20260902083213 76 250 0.0 0.0 0.00 0.00 0.00 92 1016.2
20260902082708 76 250 0.0 0.0 0.00 0.00 0.00 92 1016.2
20260902082649 76 250 0.0 0.0 0.00 0.00 0.00 92 1016.2
20260902081655 76 250 0.0 0.0 0.00 0.00 0.00 92 1016.3
20260902081151 76 250 0.0 0.0 0.00 0.00 0.00 92 1016.3
20260902080656 76 250 0.0 0.0 0.00 0.00 0.00 92 1016.3
20260902080138 76 250 0.0 0.0 0.00 0.00 0.00 92 1016.3
20260902075632 76 250 0.0 0.0 0.00 0.00 0.00 91 1016.4
20260902075125 76 250 0.0 0.0 0.00 0.00 0.00 91 1016.2
20260902074621 76 251 0.0 0.0 0.00 0.00 0.00 91 1016.3
20260902074114 76 251 0.0 0.0 0.00 0.00 0.00 92 1016.3
20260902073609 76 251 0.0 0.0 0.00 0.00 0.00 91 1016.3
20260902073103 76 240 0.0 0.0 0.00 0.00 0.00 91 1016.3
20260902072816 76 240 0.0 0.0 0.00 0.00 0.00 91 1016.3
20260902072049 76 240 0.0 0.0 0.00 0.00 0.00 91 1016.2
20260902071549 76 240 0.0 0.0 0.00 0.00 0.00 91 1016.3
20260902071038 76 240 0.0 0.0 0.00 0.00 0.00 91 1016.2
20260902070531 76 240 0.0 0.0 0.00 0.00 0.00 91 1016.2
20260902070025 76 240 0.0 0.0 0.00 0.00 0.00 91 1016.2
20260902065521 76 240 0.0 0.0 0.00 0.00 0.00 91 1016.2
20260902065013 76 240 0.0 0.0 0.00 0.00 0.00 91 1016.2
20260902064509 76 240 0.0 0.0 0.00 0.00 0.00 91 1016.2
20260902064003 76 240 0.0 0.0 0.00 0.00 0.00 91 1016.2
20260902063944 76 240 0.0 0.0 0.00 0.00 0.00 91 1016.3
20260902062951 76 240 0.0 0.0 0.00 0.00 0.00 91 1016.3
20260902062445 76 240 0.0 0.0 0.00 0.00 0.00 91 1016.3
20260902061939 76 240 0.0 0.0 0.00 0.00 0.00 91 1016.2
20260902061432 76 240 0.0 0.0 0.00 0.00 0.00 91 1016.3
20260902060925 76 240 0.0 0.0 0.00 0.00 0.00 91 1016.3